This demonstration page uses our WeatherBlox Daily Observations layout. Learn more.

Left ArrowRight Arrow

Hourly Observations for January 14, 2016

Temp ( °F °C ) Dew Point ( °F °C ) Humidity (%) Winds ( mph kmh ) Pressure ( in mb ) Visibility ( mi km ) Precip ( " mm )
12:53 am 00:53 Clear 44 6.7 36 2.2 73 73 SSW 13 20 29.90 1013 10 16 0.00 0.00
1:53 am 01:53 Clear 41 5 35 1.7 79 79 SSW 9 15 29.89 1012 10 16 0.00 0.00
2:53 am 02:53 Clear 39 3.9 35 1.7 86 86 SSW 8 13 29.88 1012 10 16 0.00 0.00
3:53 am 03:53 Clear 38 3.3 35 1.7 89 89 SSW 10 17 29.87 1012 7 11 0.00 0.00
4:53 am 04:53 Clear with Mist and Fog 37 2.8 34 1.1 89 89 SSW 8 13 29.85 1011 6 10 0.00 0.00
4:59 am 04:59 Mostly Clear with Mist and Fog 37 2.8 35 1.7 93 93 SSW 10 17 29.97 1015 2 2 0.00 0.00
5:01 am 05:01 Mostly Cloudy with Mist and Fog 37 2.8 35 1.7 93 93 SSW 9 15 29.97 1015 1 1 0.00 0.00
5:11 am 05:11 Mostly Cloudy with Fog 37 2.8 35 1.7 93 93 SSW 8 13 29.97 1015 0 0 0.00 0.00
5:53 am 05:53 Mostly Cloudy with Fog 37 2.8 35 1.7 93 93 SW 7 11 29.85 1011 0 0 0.00 0.00
6:53 am 06:53 Mostly Cloudy with Fog 35 1.7 33 0.6 93 93 SW 7 11 29.86 1011 0 0 0.00 0.00
6:59 am 06:59 Mostly Cloudy with Mist and Fog 35 1.7 33 0.6 93 93 WSW 7 11 30.00 1016 1 2 0.00 0.00
7:03 am 07:03 Partly Cloudy with Mist and Fog 35 1.7 33 0.6 93 93 WSW 7 11 30.00 1016 6 10 0.00 0.00
7:53 am 07:53 Sunny 32 0 29 -1.7 88 88 SW 7 11 29.86 1011 10 16 0.00 0.00
8:53 am 08:53 Sunny 34 1.1 28 -2.2 79 79 SW 7 11 29.85 1011 10 16 0.00 0.00
9:53 am 09:53 Sunny 44 6.7 29 -1.7 55 55 WSW 12 19 29.86 1011 10 16 0.00 0.00
10:53 am 10:53 Sunny 50 10 25 -3.9 38 38 WSW 16 26 29.85 1011 10 16 0.00 0.00
11:53 am 11:53 Sunny 55 12.8 24 -4.4 30 30 WSW 15 24 29.82 1010 10 16 0.00 0.00
12:53 pm 12:53 Sunny 59 15 24 -4.4 26 26 WSW 15 24 29.76 1008 10 16 0.00 0.00
1:53 pm 13:53 Sunny 62 16.7 23 -5 22 22 W 16 26 29.72 1006 10 16 0.00 0.00
2:53 pm 14:53 Sunny 65 18.3 22 -5.6 19 19 W 16 26 29.69 1006 10 16 0.00 0.00
3:53 pm 15:53 Sunny 67 19.4 20 -6.7 17 17 W 18 30 29.68 1005 10 16 0.00 0.00
4:53 pm 16:53 Sunny 66 18.9 18 -7.8 16 16 W 14 22 29.68 1005 10 16 0.00 0.00
5:53 pm 17:53 Sunny 61 16.1 19 -7.2 20 20 W 10 17 29.70 1006 10 16 0.00 0.00
6:53 pm 18:53 Clear 56 13.3 20 -6.7 24 24 W 13 20 29.72 1007 10 16 0.00 0.00
7:53 pm 19:53 Clear 51 10.6 22 -5.6 32 32 W 12 19 29.75 1007 10 16 0.00 0.00
8:53 pm 20:53 Clear 49 9.4 22 -5.6 35 35 W 14 22 29.77 1008 10 16 0.00 0.00
9:53 pm 21:53 Clear 48 8.9 21 -6.1 34 34 W 13 20 29.75 1008 10 16 0.00 0.00
10:53 pm 22:53 Clear 47 8.3 21 -6.1 36 36 WNW 13 20 29.75 1008 10 16 0.00 0.00
11:53 pm 23:53 Clear 45 7.2 20 -6.7 37 37 NW 14 22 29.79 1009 10 16 0.00 0.00

Powered by AerisWeather